West Point, VA

11:44 PM EDT on August 28, 2016 (GMT -0400)
West Point

Weather History for KFYJ - January, 2012

Change the Weather History Date:

Saturday, January 28, 2012

  Actual Average (KRIC) Record (KRIC)
Temperature  
Mean Temperature 44 °F 38 °F  
Max Temperature 57 °F 48 °F 77 °F (1944)
Min Temperature 30 °F 29 °F -7 °F (1940)
Degree Days  
Heating Degree Days 22 27  
Month to date heating degree days 756  
Since 1 July heating degree days 2175  
Cooling Degree Days 0 0  
Month to date cooling degree days 0  
Year to date cooling degree days 0  
Moisture  
Dew Point 36 °F    
Average Humidity 77    
Maximum Humidity 100    
Minimum Humidity 48    
Precipitation  
Precipitation 0.00 in 0.10 in 2.07 in (1952)
Month to date precipitation 2.74  
Year to date precipitation 2.74  
Snow  
Snow 0.00 in 0.10 in 10.30 in (1922)
Month to date snowfall 3.4  
Since 1 July snowfall 5.7  
Snow Depth -    
Sea Level Pressure  
Sea Level Pressure 30.07 in    
Wind  
Wind Speed 3 mph (SSW)    
Max Wind Speed 13 mph    
Max Gust Speed 17 mph    
Visibility 10 miles    
Events      
T = Trace of Precipitation, MM = Missing Value Source: NWS Daily Summary

Daily Weather History Graph

Daily Weather History Graph

Search for Another Location

Airport or City:

Trip Planner

Search our weather history database for the weather conditions in past years. The results will help you decide how hot, cold, wet, or windy it might be!

Date:

Astronomy

Jan. 28, 2012 Rise Set
Actual Time 7:14 AM EST 5:26 PM EST
Civil Twilight 6:46 AM EST 5:54 PM EST
Nautical Twilight 6:14 AM EST 6:25 PM EST
Astronomical Twilight 5:43 AM EST 6:56 PM EST
Moon 9:43 AM EST (1/28) 11:03 PM EST (1/28)
Length of Visible Light 11h 07m
Length of Day
10h 12m
Waxing Crescent, 27% of the Moon is Illuminated
Jan 28
Waxing Crescent
Jan 30
First Quarter
Feb 7
Full
Feb 14
Last Quarter
Feb 21
New

Hourly Weather History & Observations

Time (EST) Temp. Windchill Dew Point Humidity Pressure Visibility Wind Dir Wind Speed Gust Speed Precip Events Conditions
12:15 AM 37.4 °F - 37.4 °F 100% 30.02 in 10.0 mi Calm Calm - N/A   Clear
12:35 AM 35.6 °F - 35.6 °F 100% 30.03 in 10.0 mi Calm Calm - N/A   Clear
12:55 AM 35.6 °F - 35.6 °F 100% 30.03 in 10.0 mi Calm Calm - N/A   Clear
1:15 AM 37.4 °F 34.9 °F 37.4 °F 100% 30.04 in 10.0 mi NNW 3.5 mph - N/A   Clear
1:35 AM 32.0 °F - 32.0 °F 100% 30.03 in 10.0 mi Calm Calm - N/A   Clear
1:55 AM 33.8 °F - 33.8 °F 100% 30.05 in 10.0 mi Calm Calm - N/A   Clear
2:15 AM 33.8 °F - 33.8 °F 100% 30.05 in 10.0 mi Calm Calm - N/A   Clear
2:35 AM 33.8 °F - 33.8 °F 100% 30.06 in 10.0 mi Calm Calm - N/A   Clear
2:55 AM 33.8 °F - 33.8 °F 100% 30.07 in 10.0 mi Calm Calm - N/A   Clear
3:15 AM 33.8 °F - 33.8 °F 100% 30.06 in 10.0 mi Calm Calm - N/A   Clear
3:35 AM 33.8 °F - 33.8 °F 100% 30.06 in 10.0 mi Calm Calm - N/A   Clear
3:55 AM 32.0 °F - 32.0 °F 100% 30.06 in 10.0 mi Calm Calm - N/A   Clear
4:15 AM 32.0 °F - 32.0 °F 100% 30.08 in 10.0 mi Calm Calm - N/A   Clear
4:35 AM 32.0 °F - 32.0 °F 100% 30.08 in 10.0 mi Calm Calm - N/A   Clear
4:55 AM 32.0 °F - 32.0 °F 100% 30.09 in 10.0 mi Calm Calm - N/A   Clear
5:15 AM 32.0 °F - 32.0 °F 100% 30.09 in 10.0 mi Calm Calm - N/A   Clear
5:35 AM 30.2 °F 26.7 °F 30.2 °F 100% 30.09 in 10.0 mi East 3.5 mph - N/A   Clear
5:55 AM 32.0 °F - 32.0 °F 100% 30.09 in 10.0 mi Calm Calm - N/A   Clear
6:15 AM 32.0 °F - 32.0 °F 100% 30.09 in 10.0 mi Calm Calm - N/A   Clear
6:35 AM 30.2 °F - 30.2 °F 100% 30.11 in 10.0 mi Calm Calm - N/A   Clear
6:55 AM 30.2 °F - 30.2 °F 100% 30.11 in 10.0 mi Calm Calm - N/A   Clear
7:15 AM 30.2 °F - 30.2 °F 100% 30.12 in 10.0 mi Calm Calm - N/A   Clear
7:35 AM 30.2 °F - 30.2 °F 100% 30.12 in 10.0 mi Calm Calm - N/A   Clear
7:55 AM 32.0 °F - 32.0 °F 100% 30.12 in 10.0 mi Calm Calm - N/A   Clear
8:15 AM 32.0 °F - 32.0 °F 100% 30.11 in 10.0 mi Calm Calm - N/A   Clear
8:35 AM 35.6 °F - 35.6 °F 100% 30.11 in 10.0 mi Calm Calm - N/A   Clear
8:55 AM 41.0 °F 39.0 °F 41.0 °F 100% 30.12 in 10.0 mi SE 3.5 mph - N/A   Clear
9:15 AM 42.8 °F 40.1 °F 37.4 °F 81% 30.12 in 10.0 mi SSE 4.6 mph - N/A   Clear
9:35 AM 44.6 °F 40.7 °F 37.4 °F 76% 30.12 in 10.0 mi SSE 6.9 mph - N/A   Clear
9:55 AM 44.6 °F 38.8 °F 37.4 °F 76% 30.12 in 10.0 mi SSE 11.5 mph - N/A   Clear
10:15 AM 46.4 °F 41.5 °F 37.4 °F 71% 30.13 in 10.0 mi SE 10.4 mph - N/A   Clear
10:35 AM 46.4 °F 41.9 °F 37.4 °F 71% 30.13 in 10.0 mi SSE 9.2 mph - N/A   Clear
10:55 AM 48.2 °F - 37.4 °F 66% 30.13 in 10.0 mi SE 5.8 mph - N/A   Clear
11:15 AM 50.0 °F - 37.4 °F 62% 30.12 in 10.0 mi SSE 6.9 mph - N/A   Clear
11:35 AM 50.0 °F - 37.4 °F 62% 30.11 in 10.0 mi SSE 8.1 mph - N/A   Clear
11:55 AM 50.0 °F - 37.4 °F 62% 30.09 in 10.0 mi SSE 9.2 mph - N/A   Clear
12:15 PM 51.8 °F - 39.2 °F 62% 30.08 in 10.0 mi SSW 9.2 mph - N/A   Clear
12:35 PM 53.6 °F - 41.0 °F 62% 30.07 in 10.0 mi SSW 9.2 mph - N/A   Clear
12:55 PM 53.6 °F - 39.2 °F 58% 30.05 in 10.0 mi SSW 10.4 mph - N/A   Clear
1:15 PM 53.6 °F - 39.2 °F 58% 30.03 in 10.0 mi South 10.4 mph - N/A   Clear
1:35 PM 55.4 °F - 41.0 °F 58% 30.02 in 10.0 mi SSW 9.2 mph - N/A   Clear
1:55 PM 55.4 °F - 39.2 °F 54% 30.01 in 10.0 mi SW 11.5 mph 17.3 mph N/A   Clear
2:15 PM 55.4 °F - 39.2 °F 54% 30.00 in 10.0 mi SSW 11.5 mph 16.1 mph N/A   Clear
2:35 PM 55.4 °F - 39.2 °F 54% 29.99 in 10.0 mi SSW 10.4 mph 16.1 mph N/A   Clear
2:55 PM 57.2 °F - 39.2 °F 51% 29.99 in 10.0 mi SSW 12.7 mph - N/A   Clear
3:15 PM 57.2 °F - 39.2 °F 51% 30.00 in 10.0 mi SW 11.5 mph - N/A   Clear
3:35 PM 57.2 °F - 39.2 °F 51% 30.00 in 10.0 mi SW 9.2 mph - N/A   Clear
4:15 PM 57.2 °F - 37.4 °F 48% 30.01 in 10.0 mi SW 9.2 mph - N/A   Clear
4:35 PM 55.4 °F - 37.4 °F 51% 30.01 in 10.0 mi SSW 8.1 mph - N/A   Clear
4:55 PM 55.4 °F - 37.4 °F 51% 30.01 in 10.0 mi SW 8.1 mph - N/A   Clear
5:15 PM 53.6 °F - 37.4 °F 54% 30.01 in 10.0 mi SSW 4.6 mph - N/A   Clear
5:35 PM 53.6 °F - 39.2 °F 58% 30.02 in 10.0 mi South 4.6 mph - N/A   Clear
6:15 PM 51.8 °F - 37.4 °F 58% 30.03 in 10.0 mi South 3.5 mph - N/A   Clear
6:35 PM 51.8 °F - 37.4 °F 58% 30.04 in 10.0 mi South 4.6 mph - N/A   Clear
6:55 PM 50.0 °F - 37.4 °F 62% 30.06 in 10.0 mi South 3.5 mph - N/A   Clear
7:15 PM 50.0 °F - 37.4 °F 62% 30.06 in 10.0 mi SSW 3.5 mph - N/A   Scattered Clouds
7:35 PM 50.0 °F - 41.0 °F 71% 30.07 in 10.0 mi SW 4.6 mph - N/A   Scattered Clouds
7:55 PM 50.0 °F - 39.2 °F 66% 30.09 in 10.0 mi SW 10.4 mph - N/A   Scattered Clouds
8:15 PM 50.0 °F - 39.2 °F 66% 30.10 in 10.0 mi West 4.6 mph - N/A   Scattered Clouds
8:35 PM 50.0 °F - 39.2 °F 66% 30.11 in 10.0 mi West 5.8 mph - N/A   Mostly Cloudy
8:55 PM 50.0 °F - 37.4 °F 62% 30.12 in 10.0 mi WNW 8.1 mph - N/A   Scattered Clouds
9:15 PM 51.8 °F - 35.6 °F 54% 30.13 in 10.0 mi NW 10.4 mph 16.1 mph N/A   Clear
9:35 PM 50.0 °F - 33.8 °F 54% 30.14 in 10.0 mi WNW 9.2 mph 17.3 mph N/A   Clear
9:55 PM 50.0 °F - 33.8 °F 54% 30.16 in 10.0 mi WNW 5.8 mph - N/A   Clear
10:15 PM 50.0 °F - 32.0 °F 50% 30.16 in 10.0 mi WNW 9.2 mph - N/A   Clear
10:35 PM 46.4 °F 44.3 °F 32.0 °F 57% 30.17 in 10.0 mi WNW 4.6 mph - N/A   Clear
10:55 PM 46.4 °F 43.5 °F 30.2 °F 53% 30.18 in 10.0 mi NW 5.8 mph - N/A   Clear
11:15 PM 44.6 °F 42.2 °F 30.2 °F 57% 30.19 in 10.0 mi NW 4.6 mph - N/A   Clear
11:35 PM 44.6 °F - 30.2 °F 57% 30.20 in 10.0 mi Calm Calm - N/A   Clear
11:55 PM 39.2 °F - 32.0 °F 75% 30.21 in 10.0 mi Calm Calm - N/A   Clear